Scottsbluff, NE

7:34 AM MDT on July 21, 2019 (GMT -0600)
Heilig

Weather History for KBFF - May, 2019

Change the Weather History Date:

Monday, May 20, 2019

  Actual Average Record
Temperature  
Mean Temperature 38 °F -  
Max Temperature 41 °F 72 °F 96 °F (1925)
Min Temperature 35 °F 45 °F 24 °F (1931)
Degree Days  
Heating Degree Days 27    
Moisture  
Dew Point 38 °F    
Average Humidity 96    
Maximum Humidity 100    
Minimum Humidity 73    
Precipitation  
Precipitation 0.31 in - - ()
Sea Level Pressure  
Sea Level Pressure 29.93 in    
Wind  
Wind Speed 13 mph (East)    
Max Wind Speed 20 mph    
Max Gust Speed 22 mph    
Visibility 6 miles    
Events Rain , Snow    
Averages and records for this station are not official NWS values.
T = Trace of Precipitation, MM = Missing Value Source: NWS Daily Summary

Daily Weather History Graph

Daily Weather History Graph

Search for Another Location

Airport or City:

Astronomy

May. 20, 2019 Rise Set
Actual Time 5:29 AM MDT 8:12 PM MDT
Civil Twilight 4:57 AM MDT 8:45 PM MDT
Nautical Twilight 4:16 AM MDT 9:25 PM MDT
Astronomical Twilight 3:30 AM MDT 10:12 PM MDT
Moon 10:16 PM MDT (5/20) 6:59 AM MDT (5/20)
Length of Visible Light 15h 47m
Length of Day
14h 42m
Waning Gibbous, 96% of the Moon is Illuminated
May 20
Waning Gibbous
May 26
Last Quarter
Jun 3
New
Jun 10
First Quarter
Jun 17
Full

Hourly Weather History & Observations

Time (MDT) Temp. Windchill Dew Point Humidity Pressure Visibility Wind Dir Wind Speed Gust Speed Precip Events Conditions
12:41 AM 41.0 °F 33.1 °F 33.1 °F 73% 30.03 in 10.0 mi East 15.0 mph - N/A   Overcast
12:53 AM 41.0 °F 34.3 °F 34.0 °F 76% 30.02 in 10.0 mi East 11.5 mph - N/A   Overcast
2:53 AM 39.0 °F 31.4 °F 35.1 °F 86% 30.01 in 10.0 mi East 12.7 mph - 0.00 in Rain Light Rain
3:40 AM 37.9 °F 30.9 °F 37.0 °F 97% 30.01 in 7.0 mi East 10.4 mph - 0.01 in Rain Light Rain
3:53 AM 37.9 °F 30.9 °F 37.0 °F 97% 30.01 in 10.0 mi East 10.4 mph - 0.01 in Rain Light Rain
4:53 AM 37.9 °F 30.0 °F 37.0 °F 97% 29.99 in 9.0 mi East 12.7 mph - 0.01 in   Overcast
5:53 AM 37.9 °F 30.0 °F 36.0 °F 93% 29.98 in 10.0 mi East 12.7 mph - N/A   Overcast
6:06 AM 37.9 °F 30.9 °F 36.0 °F 93% 29.98 in 9.0 mi East 10.4 mph - N/A   Overcast
6:49 AM 37.4 °F 30.8 °F 37.4 °F 100% 29.98 in 2.5 mi East 9.2 mph - 0.00 in Rain Light Rain
6:53 AM 37.0 °F 29.3 °F 37.0 °F 100% 29.99 in 3.0 mi ESE 11.5 mph - 0.00 in Rain Light Rain
7:53 AM 37.9 °F 29.6 °F 37.0 °F 97% 29.99 in 5.0 mi ESE 13.8 mph - 0.01 in Rain Light Rain
8:01 AM 37.9 °F 29.6 °F 37.9 °F 100% 29.98 in 5.0 mi SE 13.8 mph - 0.00 in Rain Light Rain
8:53 AM 37.9 °F 29.2 °F 37.9 °F 100% 30.01 in 4.0 mi ESE 15.0 mph - 0.01 in Rain Light Rain
9:04 AM 37.9 °F 29.2 °F 37.9 °F 100% 29.98 in 2.5 mi ESE 15.0 mph - 0.00 in   Overcast
9:18 AM 37.9 °F 30.0 °F 37.9 °F 100% 29.98 in 2.0 mi ESE 12.7 mph - 0.00 in Rain Light Rain
9:23 AM 37.9 °F 30.0 °F 37.9 °F 100% 29.98 in 3.0 mi ESE 12.7 mph - 0.00 in Rain Light Rain
9:53 AM 39.0 °F 30.6 °F 37.9 °F 96% 29.99 in 3.0 mi ESE 15.0 mph - 0.00 in Rain Light Rain
10:53 AM 39.9 °F 31.4 °F 39.0 °F 97% 29.97 in 9.0 mi ESE 16.1 mph - 0.01 in Rain Light Rain
11:14 AM 39.9 °F 31.4 °F 39.0 °F 97% 29.95 in 6.0 mi ESE 16.1 mph - 0.00 in Rain Light Rain
11:22 AM 39.0 °F 29.3 °F 39.0 °F 100% 29.95 in 4.0 mi ESE 19.6 mph - 0.00 in Rain Light Rain
11:53 AM 39.0 °F 30.6 °F 39.0 °F 100% 29.97 in 5.0 mi ESE 15.0 mph - 0.01 in Rain Light Rain
12:22 PM 39.9 °F 32.1 °F 39.0 °F 97% 29.94 in 3.0 mi ESE 13.8 mph - 0.01 in Rain Light Rain
12:26 PM 39.9 °F 31.8 °F 39.9 °F 100% 29.94 in 2.5 mi ESE 15.0 mph 21.9 mph 0.01 in Rain Light Rain
12:43 PM 41.0 °F 33.1 °F 39.9 °F 96% 29.93 in 5.0 mi ESE 15.0 mph - 0.02 in Rain Light Rain
12:53 PM 39.9 °F 31.1 °F 39.0 °F 97% 29.94 in 5.0 mi ESE 17.3 mph - 0.03 in Rain Rain
1:25 PM 39.0 °F 30.6 °F 37.9 °F 96% 29.92 in 2.0 mi ESE 15.0 mph - 0.08 in Rain Rain
1:39 PM 39.0 °F 30.3 °F 37.0 °F 93% 29.92 in 4.0 mi ESE 16.1 mph - 0.12 in Rain Light Rain
1:53 PM 39.0 °F 30.3 °F 37.9 °F 96% 29.95 in 9.0 mi ESE 16.1 mph - 0.12 in Rain Light Rain
2:06 PM 37.9 °F 30.0 °F 37.0 °F 97% 29.91 in 4.0 mi East 12.7 mph - 0.01 in Rain Light Rain
2:21 PM 37.9 °F 30.0 °F 37.9 °F 100% 29.91 in 2.5 mi East 12.7 mph - 0.02 in Rain Light Rain
2:28 PM 37.9 °F 30.5 °F 37.9 °F 100% 29.91 in 6.0 mi East 11.5 mph - 0.02 in   Overcast
2:53 PM 37.0 °F 30.4 °F 36.0 °F 96% 29.94 in 5.0 mi ENE 9.2 mph - 0.02 in Rain Light Rain
3:29 PM 39.0 °F 31.4 °F 37.9 °F 96% 29.90 in 6.0 mi ENE 12.7 mph - 0.01 in Rain Light Rain
3:53 PM 37.9 °F 30.9 °F 37.9 °F 100% 29.94 in 5.0 mi NE 10.4 mph - 0.05 in Rain Rain
4:01 PM 37.9 °F 32.1 °F 37.9 °F 100% 29.90 in 5.0 mi NE 8.1 mph - 0.02 in Rain Light Rain
4:21 PM 39.9 °F 33.4 °F 39.0 °F 97% 29.89 in 5.0 mi ESE 10.4 mph - 0.04 in Rain Light Rain
4:37 PM 39.9 °F 32.9 °F 37.9 °F 93% 29.89 in 4.0 mi ESE 11.5 mph - 0.07 in Rain Light Rain
4:53 PM 39.9 °F 32.5 °F 39.0 °F 97% 29.91 in 7.0 mi East 12.7 mph - 0.07 in Rain Light Rain
5:50 PM 39.2 °F 31.6 °F 37.4 °F 93% 29.88 in 10.0 mi ENE 12.7 mph - 0.01 in   Overcast
5:51 PM 39.0 °F 31.4 °F 37.9 °F 96% 29.91 in 10.0 mi ENE 12.7 mph - 0.01 in   Overcast
6:30 PM 39.0 °F 31.0 °F 37.9 °F 96% 29.88 in 10.0 mi ENE 13.8 mph - 0.00 in Rain Light Rain
6:49 PM 39.2 °F 32.0 °F 37.4 °F 93% 29.88 in 3.0 mi ENE 11.5 mph - 0.00 in Rain Light Rain
6:53 PM 39.0 °F 31.4 °F 39.0 °F 100% 29.91 in 2.5 mi ENE 12.7 mph - 0.01 in Rain Light Rain
7:01 PM 39.0 °F 31.4 °F 39.0 °F 100% 29.88 in 3.0 mi East 12.7 mph - 0.00 in Rain Light Rain
7:17 PM 39.9 °F 32.1 °F 39.0 °F 97% 29.87 in 4.0 mi East 13.8 mph - 0.01 in   Overcast
7:53 PM 39.0 °F 31.4 °F 39.0 °F 100% 29.90 in 4.0 mi ENE 12.7 mph - 0.01 in   Overcast
8:08 PM 39.0 °F 32.3 °F 39.0 °F 100% 29.87 in 10.0 mi East 10.4 mph - N/A   Overcast
8:26 PM 39.0 °F 31.0 °F 37.9 °F 96% 29.87 in 10.0 mi East 13.8 mph - N/A   Overcast
8:34 PM 39.0 °F 30.6 °F 37.9 °F 96% 29.87 in 10.0 mi East 15.0 mph - N/A   Overcast
8:48 PM 39.2 °F 31.2 °F 37.4 °F 93% 29.87 in 10.0 mi East 13.8 mph - N/A   Overcast
8:53 PM 39.0 °F 31.4 °F 37.9 °F 96% 29.90 in 10.0 mi East 12.7 mph - N/A   Overcast
9:34 PM 37.9 °F 29.2 °F 37.0 °F 97% 29.88 in 9.0 mi East 15.0 mph - 0.03 in Rain Light Rain
9:53 PM 37.0 °F 28.9 °F 36.0 °F 96% 29.91 in 10.0 mi East 12.7 mph - 0.04 in Rain Light Rain
10:53 PM 36.0 °F 29.0 °F 35.1 °F 97% 29.89 in 6.0 mi ENE 9.2 mph - 0.05 in Snow Light Snow
11:53 PM 35.1 °F 29.3 °F 35.1 °F 100% 29.86 in 8.0 mi East 6.9 mph - 0.08 in Rain Light Rain